Time,TemperatureF,DewpointF,PressureIn,WindDirection,WindDirectionDegrees,WindSpeedMPH,WindSpeedGustMPH,Humidity,HourlyPrecipIn,Conditions,Clouds,dailyrainin,SolarRadiationWatts/m^2,SoftwareType,DateUTC
2013-03-22 00:04:00,26.0,23.0,-100.00,West,274,8.0,17.0,88,0.00,,,0.00,0.000000,,2013-03-22 04:04:00,
2013-03-22 00:12:00,26.0,23.0,-100.00,West,274,8.0,17.0,88,0.00,,,0.00,0.000000,,2013-03-22 04:12:00,
2013-03-22 00:23:00,26.0,23.0,-100.00,West,274,8.0,17.0,88,0.00,,,0.00,0.000000,,2013-03-22 04:23:00,
2013-03-22 00:52:00,26.0,20.0,-100.00,WNW,282,6.0,13.0,79,0.00,,,0.00,0.000000,,2013-03-22 04:52:00,
2013-03-22 01:02:00,26.0,20.0,-100.00,WNW,282,6.0,13.0,79,0.00,,,0.00,0.000000,,2013-03-22 05:02:00,
2013-03-22 01:12:00,26.0,20.0,-100.00,WNW,282,6.0,13.0,79,0.00,,,0.00,0.000000,,2013-03-22 05:12:00,
2013-03-22 01:22:00,26.0,20.0,-100.00,WNW,282,6.0,13.0,79,0.00,,,0.00,0.000000,,2013-03-22 05:22:00,
2013-03-22 01:52:00,25.0,22.0,-100.00,West,265,6.0,14.0,89,0.00,,,0.00,0.000000,,2013-03-22 05:52:00,
2013-03-22 02:02:00,25.0,22.0,-100.00,West,265,6.0,14.0,89,0.00,,,0.00,0.000000,,2013-03-22 06:02:00,
2013-03-22 02:13:00,25.0,22.0,-100.00,West,265,6.0,14.0,89,0.00,,,0.00,0.000000,,2013-03-22 06:13:00,
2013-03-22 02:22:00,25.0,22.0,-100.00,West,265,6.0,14.0,89,0.00,,,0.00,0.000000,,2013-03-22 06:22:00,
2013-03-22 02:52:00,25.0,23.0,-100.00,WSW,256,7.0,12.0,91,0.00,,,0.00,0.000000,,2013-03-22 06:52:00,
2013-03-22 03:03:00,25.0,23.0,-100.00,WSW,256,7.0,12.0,91,0.00,,,0.00,0.000000,,2013-03-22 07:03:00,
2013-03-22 03:12:00,25.0,23.0,-100.00,WSW,256,7.0,12.0,91,0.00,,,0.00,0.000000,,2013-03-22 07:12:00,
2013-03-22 03:22:00,25.0,23.0,-100.00,WSW,256,7.0,12.0,91,0.00,,,0.00,0.000000,,2013-03-22 07:22:00,
2013-03-22 03:52:00,24.0,22.0,-100.00,WSW,246,6.0,14.0,91,0.00,,,0.00,0.000000,,2013-03-22 07:52:00,
2013-03-22 04:03:00,24.0,22.0,-100.00,WSW,246,6.0,14.0,91,0.00,,,0.00,0.000000,,2013-03-22 08:03:00,
2013-03-22 04:13:00,24.0,22.0,-100.00,WSW,246,6.0,14.0,91,0.00,,,0.00,0.000000,,2013-03-22 08:13:00,
2013-03-22 04:22:00,24.0,22.0,-100.00,WSW,246,6.0,14.0,91,0.00,,,0.00,0.000000,,2013-03-22 08:22:00,
2013-03-22 04:52:00,24.0,21.0,-100.00,WSW,254,7.0,13.0,89,0.00,,,0.00,0.000000,,2013-03-22 08:52:00,
2013-03-22 05:03:00,24.0,21.0,-100.00,WSW,254,7.0,13.0,89,0.00,,,0.00,0.000000,,2013-03-22 09:03:00,
2013-03-22 05:12:00,24.0,21.0,-100.00,WSW,254,7.0,13.0,89,0.00,,,0.00,0.000000,,2013-03-22 09:12:00,
2013-03-22 05:22:00,24.0,21.0,-100.00,WSW,254,7.0,13.0,89,0.00,,,0.00,0.000000,,2013-03-22 09:22:00,
2013-03-22 05:53:00,24.0,21.0,-100.00,West,259,9.0,16.0,87,0.00,,,0.00,0.000000,,2013-03-22 09:53:00,
2013-03-22 06:04:00,24.0,21.0,-100.00,West,259,9.0,16.0,87,0.00,,,0.00,0.000000,,2013-03-22 10:04:00,
2013-03-22 06:12:00,24.0,21.0,-100.00,West,259,9.0,16.0,87,0.00,,,0.00,0.000000,,2013-03-22 10:12:00,
2013-03-22 06:23:00,24.0,21.0,-100.00,West,259,9.0,16.0,87,0.00,,,0.00,0.000000,,2013-03-22 10:23:00,
2013-03-22 06:52:00,25.0,21.0,-100.00,WSW,258,9.0,16.0,86,0.00,,,0.00,0.000000,,2013-03-22 10:52:00,
2013-03-22 07:03:00,25.0,21.0,-100.00,WSW,258,9.0,16.0,86,0.00,,,0.00,0.000000,,2013-03-22 11:03:00,
2013-03-22 07:12:00,25.0,21.0,-100.00,WSW,258,9.0,16.0,86,0.00,,,0.00,0.000000,,2013-03-22 11:12:00,
2013-03-22 07:22:00,25.0,21.0,-100.00,WSW,258,9.0,16.0,86,0.00,,,0.00,0.000000,,2013-03-22 11:22:00,
2013-03-22 07:52:00,25.0,23.0,-100.00,West,260,9.0,15.0,91,0.00,,,0.00,1.000000,,2013-03-22 11:52:00,
2013-03-22 08:02:00,25.0,23.0,-100.00,West,260,9.0,15.0,91,0.00,,,0.00,1.000000,,2013-03-22 12:02:00,
2013-03-22 08:12:00,25.0,23.0,-100.00,West,260,9.0,15.0,91,0.00,,,0.00,1.000000,,2013-03-22 12:12:00,
2013-03-22 08:22:00,25.0,23.0,-100.00,West,260,9.0,15.0,91,0.00,,,0.00,1.000000,,2013-03-22 12:22:00,
2013-03-22 08:52:00,25.0,23.0,-100.00,WSW,256,9.0,17.0,91,0.00,,,0.00,31.000000,,2013-03-22 12:52:00,
2013-03-22 09:02:00,25.0,23.0,-100.00,WSW,256,9.0,17.0,91,0.00,,,0.00,31.000000,,2013-03-22 13:02:00,
2013-03-22 09:12:00,25.0,23.0,-100.00,WSW,256,9.0,17.0,91,0.00,,,0.00,31.000000,,2013-03-22 13:12:00,
2013-03-22 09:22:00,25.0,23.0,-100.00,WSW,256,9.0,17.0,91,0.00,,,0.00,31.000000,,2013-03-22 13:22:00,
2013-03-22 09:53:00,26.0,24.0,-100.00,West,260,8.0,15.0,92,0.00,,,0.00,60.000000,,2013-03-22 13:53:00,
2013-03-22 10:03:00,26.0,24.0,-100.00,West,260,8.0,15.0,92,0.00,,,0.00,60.000000,,2013-03-22 14:03:00,
2013-03-22 10:12:00,26.0,24.0,-100.00,West,260,8.0,15.0,92,0.00,,,0.00,60.000000,,2013-03-22 14:12:00,
2013-03-22 10:22:00,26.0,24.0,-100.00,West,260,8.0,15.0,92,0.00,,,0.00,60.000000,,2013-03-22 14:22:00,
2013-03-22 10:52:00,27.0,25.0,-100.00,West,270,9.0,14.0,91,0.00,,,0.00,85.000000,,2013-03-22 14:52:00,
2013-03-22 11:03:00,27.0,25.0,-100.00,West,270,9.0,14.0,91,0.00,,,0.00,85.000000,,2013-03-22 15:03:00,
2013-03-22 11:12:00,27.0,25.0,-100.00,West,270,9.0,14.0,91,0.00,,,0.00,85.000000,,2013-03-22 15:12:00,
2013-03-22 11:22:00,27.0,25.0,-100.00,West,270,9.0,14.0,91,0.00,,,0.00,85.000000,,2013-03-22 15:22:00,
2013-03-22 11:53:00,27.0,24.0,-100.00,WNW,298,5.0,16.0,90,0.00,,,0.00,171.000000,,2013-03-22 15:53:00,
2013-03-22 12:03:00,27.0,24.0,-100.00,WNW,298,5.0,16.0,90,0.00,,,0.00,171.000000,,2013-03-22 16:03:00,
2013-03-22 12:13:00,27.0,24.0,-100.00,WNW,298,5.0,16.0,90,0.00,,,0.00,171.000000,,2013-03-22 16:13:00,
2013-03-22 12:23:00,27.0,24.0,-100.00,WNW,298,5.0,16.0,90,0.00,,,0.00,171.000000,,2013-03-22 16:23:00,
2013-03-22 12:53:00,29.0,23.0,-100.00,West,280,7.0,16.0,77,0.00,,,0.00,194.000000,,2013-03-22 16:53:00,
2013-03-22 13:03:00,29.0,23.0,-100.00,West,280,7.0,16.0,77,0.00,,,0.00,194.000000,,2013-03-22 17:03:00,
2013-03-22 13:12:00,29.0,23.0,-100.00,West,280,7.0,16.0,77,0.00,,,0.00,194.000000,,2013-03-22 17:12:00,
2013-03-22 13:23:00,29.0,23.0,-100.00,West,280,7.0,16.0,77,0.00,,,0.00,194.000000,,2013-03-22 17:23:00,
2013-03-22 13:53:00,30.0,21.0,-100.00,West,269,10.0,18.0,70,0.00,,,0.00,200.000000,,2013-03-22 17:53:00,
2013-03-22 14:02:00,30.0,21.0,-100.00,West,269,10.0,18.0,70,0.00,,,0.00,200.000000,,2013-03-22 18:02:00,
2013-03-22 14:12:00,30.0,21.0,-100.00,West,269,10.0,18.0,70,0.00,,,0.00,200.000000,,2013-03-22 18:12:00,
2013-03-22 14:22:00,30.0,21.0,-100.00,West,269,10.0,18.0,70,0.00,,,0.00,200.000000,,2013-03-22 18:22:00,
2013-03-22 14:52:00,31.0,23.0,-100.00,WSW,258,10.0,17.0,72,0.02,,,0.02,144.000000,,2013-03-22 18:52:00,
2013-03-22 15:02:00,31.0,23.0,-100.00,WSW,258,10.0,17.0,72,0.02,,,0.02,144.000000,,2013-03-22 19:02:00,
2013-03-22 15:12:00,31.0,23.0,-100.00,WSW,258,10.0,17.0,72,0.02,,,0.02,144.000000,,2013-03-22 19:12:00,
2013-03-22 15:22:00,31.0,23.0,-100.00,WSW,258,10.0,17.0,72,0.02,,,0.02,144.000000,,2013-03-22 19:22:00,
2013-03-22 15:52:00,31.0,25.0,-100.00,West,265,9.0,19.0,77,0.02,,,0.04,171.000000,,2013-03-22 19:52:00,
2013-03-22 16:02:00,31.0,25.0,-100.00,West,265,9.0,19.0,77,0.02,,,0.04,171.000000,,2013-03-22 20:02:00,
2013-03-22 16:13:00,31.0,25.0,-100.00,West,265,9.0,19.0,77,0.02,,,0.04,171.000000,,2013-03-22 20:13:00,
2013-03-22 16:22:00,31.0,25.0,-100.00,West,265,9.0,19.0,77,0.02,,,0.04,171.000000,,2013-03-22 20:22:00,
2013-03-22 16:52:00,32.0,23.0,-100.00,WSW,249,11.0,17.0,70,0.00,,,0.04,139.000000,,2013-03-22 20:52:00,
2013-03-22 17:03:00,32.0,23.0,-100.00,WSW,249,11.0,17.0,70,0.00,,,0.04,139.000000,,2013-03-22 21:03:00,
2013-03-22 17:12:00,32.0,23.0,-100.00,WSW,249,11.0,17.0,70,0.00,,,0.04,139.000000,,2013-03-22 21:12:00,
2013-03-22 17:22:00,32.0,23.0,-100.00,WSW,249,11.0,17.0,70,0.00,,,0.04,139.000000,,2013-03-22 21:22:00,
2013-03-22 17:53:00,31.0,24.0,-100.00,WSW,243,8.0,16.0,74,0.00,,,0.04,102.000000,,2013-03-22 21:53:00,
2013-03-22 18:03:00,31.0,24.0,-100.00,WSW,243,8.0,16.0,74,0.00,,,0.04,102.000000,,2013-03-22 22:03:00,
2013-03-22 18:12:00,31.0,24.0,-100.00,WSW,243,8.0,16.0,74,0.00,,,0.04,102.000000,,2013-03-22 22:12:00,
2013-03-22 18:23:00,31.0,24.0,-100.00,WSW,243,8.0,16.0,74,0.00,,,0.04,102.000000,,2013-03-22 22:23:00,
2013-03-22 18:53:00,30.0,24.0,-100.00,West,260,8.0,16.0,77,0.00,,,0.04,38.000000,,2013-03-22 22:53:00,
2013-03-22 19:02:00,30.0,24.0,-100.00,West,260,8.0,16.0,77,0.00,,,0.04,38.000000,,2013-03-22 23:02:00,
2013-03-22 19:12:00,30.0,24.0,-100.00,West,260,8.0,16.0,77,0.00,,,0.04,38.000000,,2013-03-22 23:12:00,
2013-03-22 19:22:00,30.0,24.0,-100.00,West,260,8.0,16.0,77,0.00,,,0.04,38.000000,,2013-03-22 23:22:00,
2013-03-22 19:52:00,30.0,24.0,-100.00,WSW,253,8.0,14.0,79,0.00,,,0.04,9.000000,,2013-03-22 23:52:00,
2013-03-22 20:02:00,30.0,24.0,-100.00,WSW,253,8.0,14.0,79,0.00,,,0.04,9.000000,,2013-03-23 00:02:00,
2013-03-22 20:12:00,30.0,24.0,-100.00,WSW,253,8.0,14.0,79,0.00,,,0.04,9.000000,,2013-03-23 00:12:00,
2013-03-22 20:23:00,30.0,24.0,-100.00,WSW,253,8.0,14.0,79,0.00,,,0.04,9.000000,,2013-03-23 00:23:00,
2013-03-22 20:52:00,29.0,25.0,-100.00,WSW,251,9.0,18.0,86,0.00,,,0.04,0.000000,,2013-03-23 00:52:00,
2013-03-22 21:03:00,29.0,25.0,-100.00,WSW,251,9.0,18.0,86,0.00,,,0.04,0.000000,,2013-03-23 01:03:00,
2013-03-22 21:12:00,29.0,25.0,-100.00,WSW,251,9.0,18.0,86,0.00,,,0.04,0.000000,,2013-03-23 01:12:00,
2013-03-22 21:22:00,29.0,25.0,-100.00,WSW,251,9.0,18.0,86,0.00,,,0.04,0.000000,,2013-03-23 01:22:00,
2013-03-22 21:52:00,29.0,25.0,-100.00,West,263,9.0,15.0,85,0.00,,,0.04,0.000000,,2013-03-23 01:52:00,
2013-03-22 22:02:00,29.0,25.0,-100.00,West,263,9.0,15.0,85,0.00,,,0.04,0.000000,,2013-03-23 02:02:00,
2013-03-22 22:12:00,29.0,25.0,-100.00,West,263,9.0,15.0,85,0.00,,,0.04,0.000000,,2013-03-23 02:12:00,
2013-03-22 22:22:00,29.0,25.0,-100.00,West,263,9.0,15.0,85,0.00,,,0.04,0.000000,,2013-03-23 02:22:00,
2013-03-22 22:52:00,29.0,25.0,-100.00,West,265,9.0,16.0,84,0.00,,,0.04,0.000000,,2013-03-23 02:52:00,
2013-03-22 23:03:00,29.0,25.0,-100.00,West,265,9.0,16.0,84,0.00,,,0.04,0.000000,,2013-03-23 03:03:00,
2013-03-22 23:12:00,29.0,25.0,-100.00,West,265,9.0,16.0,84,0.00,,,0.04,0.000000,,2013-03-23 03:12:00,
2013-03-22 23:23:00,29.0,25.0,-100.00,West,265,9.0,16.0,84,0.00,,,0.04,0.000000,,2013-03-23 03:23:00,
2013-03-22 23:53:00,28.0,25.0,-100.00,West,267,7.0,15.0,88,0.00,,,0.04,0.000000,,2013-03-23 03:53:00,